Погода Нижний Тагил

Погода Нижний Тагил : погода сейчас, прогноз погоды и архив. Всё, что Вы хотите узнать о погоде Нижний Тагил!

Хотите узнать прогноз погоды Нижний Тагил? Тогда Вам сюда: Погода Нижний Тагил

Поиск расширенной информации на нашем сайте:

Полезная информация:

Другие новости

Новости СМИ2

Главная страница сайта

Новости сайта

03.07.2017

Напоминаем, что на нашем специализированном сайте Метеоцентр.Азия вы можете получить высокодетализированные автоматические прогнозы погоды по пунктам России, СНГ и мира в авиационном формате (включающие направление и скорость ветра, видимость, явления погоды, количество и форму облачности, нижнюю и верхнюю границу облачности).

Рекомендуем:

Погода Нижний Тагил - сегодня

Время (UTC), дата Ветер
(°,м/с) 
Видим.   Явления Облачность Т
(°С)
Тd
(°С)
f(%) Тe
(°С)
Pmin
(гПа)
dP
(гПа)
Po
(мм)
O2
(г/м3)
Тmin Tmax R s Состояние
почвы
03 16.07.19 200 (Ю) 20000 м    10/10 600 м кучево-дожд. 
[Cb cap]
+17.3 +12.6 74 +24  996.8  0.6  725  272  +16.7        сухая 
06 16.07.19 170 (Ю) 20000 м    10/10 600 м кучево-дожд. 
[Cb cap]
+17.1 +12.4 74 +23  997.8  726  273           
09 16.07.19 170 (Ю) 20000 м    10/10 600 м кучево-дожд. 
[Cb cap]
+17.8 +13.7 77 +25  999.4  1.6  727  272           
12 16.07.19 260 (З) 6-12{12}  20000 м  в посл. час ливневой дождь  10/10 600 м кучево-дожд. 
[Cb cap]
+16 +13.6 86 +23  1002.1  2.4  729  275           
15 16.07.19 290 (З) 5-10{15}  20000 м  {ливн. осадки}  10/10 600 м кучево-дожд. 
[Cb cap]
+15.7 +11.4 76 +19  1005.6  3.3  731  277    +18.4  0.3     
18 16.07.19 260 (З) 2{13}  20000 м  {ливн. осадки}  5/0 верхняя 
[Cc]
+13.9 +12.4 91 +19  1009.1  3.3  734  279           
21 16.07.19 280 (З) 20000 м    ясно 
+13.8 +12.3 91 +19  1009.8  0.6  734  279           
00 17.07.19 250 (З) 20000 м    ясно 
+12.5 +11.2 92 +16  1011.1  1.2  735  281           
03 17.07.19 270 (З) 20000 м    5/0 верхняя 
[Ci sp]
+15.8 +11.9 78 +19  1012.2  0.7  736  278  +12.5        сухая 
06 17.07.19 280 (З) 6-10{13}  20000 м    ясно 
+19.8 +10.4 55 +22  1011.8  736  275           
09 17.07.19 300 (СЗ) 7-12{14}  20000 м    8/4 600 м кучево-дожд., верхняя 
[Cb cap|Ci fib]
+21.9 +8.3 42 +22  1011.8  0.2  736  273           
12 17.07.19 280 (З) 6-11{13}  20000 м    5/3 1000 м верхняя 
[Sc|Ci fib]
+22.5 +7 37 +23  1011.7  736  273           
15 17.07.19 290 (З) 4{11}  20000 м    5/3 1000 м верхняя 
[Sc|Ci fib]
+20.9 +7.4 42 +21  1011.9  736  274    +22.8       
18 17.07.19 100 (В) 20000 м    10/3 600 м верхняя 
[Sc|Ci fib]
+11.7 +9.1 84 +13  1013.1  0.3  737  283           
21 17.07.19 140 (ЮВ) 20000 м    8/0 верхняя 
[Ci fib]
+8.9 +8 94 +10  1012.9  -0.6  736  286           
00 18.07.19 110 (В) 20000 м    ясно 
+7.3 +6.7 96 +8  1012.8  -0.3  736  288           
03 18.07.19 250 (З) 20000 м    8/0 средняя, верхняя 
[Ac trans|Ci fib]
+16.5 +10.4 67 +19  1012.2  0.5  736  278  +7.3        сухая 
06 18.07.19 270 (З) 5{12}  20000 м    ясно 
+20.4 +6.2 40 +20  1012.3  0.4  737  275           
09 18.07.19 270 (З) 4{10}  20000 м    ясно 
+23.8 +4.7 29 +24  1010.8  -1.1  736  272           
12 18.07.19 280 (З) 20000 м    ясно 
+25 +3.3 24 +25  1010.9  0.2  736  271           
15 18.07.19 280 (З) 20000 м    4/0 верхняя 
[Ci fib]
+23.5 +4.9 30 +24  1010.1  -0.9  735  272    +25.2       
18 18.07.19 110 (В) 20000 м    3/0 верхняя 
[Ci fib]
+11.1 +8.5 84 +12  1011.4  0.1  735  283           
21 18.07.19 110 (В) 20000 м    8/0 верхняя 
[Ci fib]
+9 +7.6 91 +10  1011.6  -0.1  735  285           
00 19.07.19 100 (В) 20000 м    3/0 верхняя 
[Ci fib]
+8 +7.2 95 +9  1011.9  0.2  735  287           
03 19.07.19 020 (С) 20000 м    8/0 средняя, верхняя 
[Ac lent|Cc]
+17.7 +10 61 +21  1010.3  -0.5  735  276  +7.9        сухая 
Время (UTC), дата Ветер
(°,м/с) 
Видим.   Явления Облачность Т
(°С)
Тd
(°С)
f(%) Тe
(°С)
Pmin
(гПа)
dP
(гПа)
Po
(мм)
O2
(г/м3)
Тmin Tmax R s Состояние
почвы

Для получения пояснительной информации подведите курсор к названию столбца.

ПОГОДА Нижний Тагил - архив

Всё, что Вы хотите узнать о погоде Нижний Тагил - удобно и подробно!

Выберите нужную дату (начиная с 1 января 2018* года) и нажмите кнопку "Найти".
Будут отображены архивные сводки погоды по пункту Нижний Тагил, начиная с указанной даты.


Отображать данные в формате CSV (для использования в таблицах Excel)


Внимание! Наш архив погоды предназначен исключительно для личного некоммерческого использования в познавательных целях. Если Вам необходимы официальные справки о состоянии погоды (для производственных, юридических, коммерческих и т.п. целей), обращайтесь в органы Росгидромета.

*Примечание: данная дата относится к архиву по метеостанциям СССР (Россия, СНГ, Балтия).
Архив по метеостанциям Зарубежной Европы и Азии (кроме Китая) хранится 10 дней, по другим регионам земного шара (Китай, Африка, Америка, Австралия, Океания) - 1 день.

Нижний Тагил - район местоположения метеостанции


Название, широта, долгота, высота метеостанции:
Нижний Тагил 57.9°ш. 60.1°д. 260 м над ур. моря [Российская Федерация]

Дополнительная информация

В oтличие oт бoльшинства пoгoдных сайтoв мы публикуем пoдрoбную метеoинфoрмацию в детальнoм прoфессиoнальнoм фoрмате.

Характеристики температуры и влажнoсти вoздуха измеряются на высoте 2 м в тени вдали oт зданий и деревьев.
Скoрoсть ветра измеряется на высoте 10 м (на урoвне рoста челoвека скoрoсть ветра ниже в 1.5-2 раза). Если метеoстанция нахoдится в гoрoде или в лесу, тo скoрoсть ветра занижена на 2-4 м/с пo сравнению с oткрытым местoм. Скoрoсть ветра над акватoриями крупных рек и oзёр, а также на вершинах хoлмoв на 2-5 м/с выше, чем в oбычных услoвиях.
Атмoсфернoе давление в разных тoчках местнoсти мoжет значительнo oтличаться oт давления на метеoстанции, в зависимoсти oт услoвий рельефа (при пoдъёме на 10 м давление пoнижается примернo на 1 мм рт.ст.).